Theta_e
317 317 317 317 317 317 318 317 317 317 316 316 316 316 316 317 318 319 325 332 344 346 351 350 354 349 340 341 346 346 346 350 348 347 351 349 347 349 348 345 340 345 339 339 343
317 317 317 317 317 317 318 318 317 317 317 316 316 316 317 317 319 321 330 331 344 350 350 351 348 344 344 346 347 346 346 349 347 343 351 348 349 348 348 347 347 345 339 341 343
317 317 317 317 317 317 317 318 318 317 317 317 316 316 316 318 321 326 329 330 343 351 353 350 346 344 344 347 345 343 345 347 348 347 350 350 349 348 348 349 347 342 343 344 345
317 317 317 317 317 317 317 318 318 318 317 317 316 316 316 318 332 333 329 327 335 351 351 349 345 343 345 346 347 347 347 345 345 348 347 348 347 348 348 348 346 342 344 346 347
317 317 317 317 317 317 317 317 318 318 318 318 317 316 316 318 337 335 329 326 334 349 349 342 344 346 346 344 350 350 349 349 347 347 341 345 349 349 349 347 345 345 346 347 347
320 320 319 318 317 317 317 317 318 318 318 318 317 316 316 317 332 335 330 327 331 342 351 345 348 352 349 346 348 347 346 346 348 349 347 346 349 349 349 346 345 346 347 348 347
322 322 321 319 318 317 317 317 318 318 319 318 317 317 316 320 333 333 330 328 332 346 349 351 351 352 347 340 344 342 343 347 346 345 343 348 350 351 348 347 345 346 347 346 346
323 322 321 319 318 317 317 317 318 319 320 320 319 317 317 319 338 337 330 326 323 335 346 346 348 352 352 342 345 344 345 349 345 345 340 344 348 349 349 347 347 346 345 346 345
325 324 321 318 317 317 317 318 319 320 321 320 317 317 318 324 337 336 333 327 322 327 333 341 343 345 337 334 338 347 348 350 350 345 344 344 348 348 348 348 348 347 346 345 345
326 325 321 317 317 317 318 319 320 323 320 317 320 324 323 330 329 334 336 331 324 332 336 339 341 333 333 331 336 342 351 349 351 349 344 347 347 343 347 347 347 347 347 347 346
327 323 320 317 317 318 318 322 327 326 324 317 321 323 325 328 325 330 337 338 338 339 337 335 332 334 335 333 334 338 344 348 344 342 346 346 346 345 343 344 343 343 346 347 347
320 321 318 318 318 318 322 328 329 327 326 327 327 325 323 326 330 331 334 337 338 338 333 332 332 331 330 332 336 337 341 345 346 347 345 343 348 345 344 343 343 344 343 343 342
320 320 318 318 318 322 326 325 326 326 323 326 327 327 326 327 326 329 331 338 336 336 336 333 332 330 334 337 339 338 340 347 346 346 342 347 350 352 350 343 343 344 344 343 342
319 319 319 326 324 324 327 326 326 326 319 322 328 328 327 327 327 331 334 336 333 335 332 330 329 329 330 335 334 336 335 346 347 345 344 344 346 346 351 348 344 344 344 342 342
324 319 322 326 327 326 326 326 326 326 329 327 326 327 327 326 326 329 334 335 332 330 326 328 326 326 328 331 336 336 345 347 345 340 343 346 344 340 349 351 346 343 341 343 343
325 323 319 325 327 326 326 326 327 324 332 328 326 324 324 324 325 327 332 335 331 327 325 324 326 326 325 328 334 335 339 326 331 334 339 340 336 342 349 348 350 348 346 342 343
324 327 322 325 326 326 327 329 326 329 328 325 324 322 323 323 324 327 329 330 324 324 324 323 324 325 328 329 326 324 323 323 331 340 337 337 340 340 341 344 345 348 346 343 344
327 328 330 324 328 325 328 325 333 330 329 323 321 320 322 321 322 323 325 327 323 322 320 323 325 326 326 326 327 327 324 324 330 338 344 339 346 344 338 339 343 343 345 344 342
331 335 333 329 323 326 329 330 333 332 331 322 322 323 323 322 323 324 322 321 320 319 323 322 326 324 323 326 325 326 324 325 335 335 341 341 341 337 340 343 345 346 343 344 345
331 336 335 334 328 327 327 330 331 328 331 329 333 326 322 322 322 323 321 322 323 320 321 324 326 325 325 325 323 325 320 322 328 341 342 339 343 344 344 343 343 346 345 344 344
330 337 333 334 328 330 331 330 331 331 332 331 332 333 331 332 320 320 322 328 323 327 323 322 322 324 323 327 326 320 320 317 323 329 333 341 345 343 347 345 345 346 343 343 343
334 329 334 330 330 325 329 330 328 327 332 331 330 331 332 331 332 331 331 329 329 328 331 326 319 324 326 324 324 319 328 316 316 332 331 338 349 343 346 345 343 346 346 345 342
337 336 333 331 328 328 325 328 329 328 326 330 328 327 328 331 333 331 331 329 330 327 326 325 321 325 328 326 325 328 329 320 325 332 339 347 351 344 340 341 344 347 347 346 358
337 331 332 332 332 329 326 328 330 330 327 329 330 329 330 330 328 331 331 332 331 332 328 325 319 324 329 329 327 331 331 327 329 337 343 342 345 343 340 339 342 346 351 356 356
332 330 331 330 331 328 326 327 329 329 328 325 326 330 331 328 328 328 328 327 331 329 326 323 327 327 327 327 329 331 333 332 329 337 337 339 339 337 336 339 349 352 358 355 355
330 329 332 332 333 324 320 325 328 328 326 324 323 328 327 328 327 327 326 328 330 326 324 320 325 326 327 326 329 333 334 340 341 337 336 334 337 332 337 350 357 355 349 349 353
330 332 332 332 331 327 325 328 330 326 327 327 324 325 327 327 327 327 326 326 326 327 325 322 321 322 327 324 328 332 333 339 343 338 336 338 337 335 341 354 352 349 345 342 345
Wind_Speed
16 15 14 13 11 9 8 7 6 4 3 2 1 2 3 4 4 5 7 5 11 15 17 17 13 7 8 2 6 2 4 3 2 4 3 16 9 11 4 17 10 3 20 33 29
17 16 14 13 11 10 8 7 6 4 3 2 2 3 3 5 5 6 7 10 13 15 19 12 12 9 5 5 2 5 4 2 1 2 8 19 10 14 10 15 4 13 25 31 31
17 16 15 13 11 10 8 6 6 5 3 2 2 3 3 4 4 5 11 12 13 11 8 8 10 6 5 3 3 4 2 3 4 3 16 11 13 9 23 2 11 33 33 33 31
18 16 14 13 11 9 9 6 6 5 4 3 3 3 3 4 4 8 15 12 13 14 12 7 7 2 3 3 2 3 6 5 6 3 15 11 12 12 6 5 21 35 33 33 30
19 17 15 13 12 9 8 7 5 5 4 3 3 3 4 6 4 10 18 16 18 19 15 17 8 1 0 3 4 3 7 8 19 17 14 14 10 9 8 14 27 31 30 31 29
19 17 15 13 12 9 7 6 6 5 4 4 4 5 6 3 9 6 19 21 22 24 21 20 8 4 2 4 3 4 12 29 17 12 11 6 11 12 9 24 30 31 27 27 27
18 16 14 13 11 9 6 6 5 5 4 4 5 7 8 11 9 9 13 17 21 24 24 21 19 2 5 2 7 16 10 16 18 18 5 20 3 5 25 27 29 31 33 27 26
17 16 14 12 10 8 5 5 4 4 3 4 6 7 5 13 13 12 13 17 19 21 21 17 21 17 13 10 6 7 8 8 13 17 8 4 3 8 25 27 24 25 28 30 28
17 17 14 10 7 4 3 3 3 2 1 3 6 6 3 14 16 13 8 15 17 18 21 14 4 12 6 5 3 5 7 4 8 5 4 2 4 11 22 24 22 23 26 28 30
18 16 13 9 3 1 2 3 2 2 3 5 6 2 8 14 23 18 12 12 16 13 15 17 12 5 4 4 5 6 8 10 12 4 3 7 5 11 22 21 22 25 28 28 27
16 13 10 6 1 3 5 5 2 1 7 8 3 1 10 5 21 20 16 14 12 4 4 2 3 5 11 10 8 6 15 14 9 9 1 3 13 19 22 23 17 20 27 30 31
14 11 8 4 2 4 7 3 4 3 7 10 15 18 16 5 12 17 20 13 8 5 2 4 6 10 5 6 7 5 6 6 4 7 3 1 4 3 11 16 19 15 21 25 25
13 8 5 3 4 9 7 8 7 9 1 6 9 11 7 11 11 20 22 23 4 5 6 6 9 5 3 4 3 4 7 9 6 8 3 5 1 3 2 10 20 21 21 26 24
13 7 3 5 6 8 5 5 7 5 5 5 4 2 8 8 4 17 22 14 3 5 4 5 8 5 4 6 8 5 12 11 11 10 3 4 2 2 4 8 4 2 10 20 28
13 7 2 3 4 4 3 4 6 2 3 1 4 5 11 11 6 14 21 19 7 5 6 7 6 7 5 5 5 7 12 11 5 6 6 6 4 5 5 6 7 6 10 10 12
10 8 1 3 1 2 2 2 3 5 2 1 6 5 5 0 1 3 11 13 2 4 2 10 9 4 8 5 8 9 8 9 6 4 2 3 4 4 3 6 6 13 18 21 22
10 6 1 4 2 3 2 5 4 3 1 3 4 3 4 4 2 4 6 6 4 2 2 6 6 5 4 3 4 5 5 3 3 1 4 2 4 6 5 10 10 14 20 26 27
13 6 3 8 7 4 5 5 1 1 5 4 4 3 4 3 4 1 4 1 2 4 2 0 8 2 2 7 8 0 7 5 3 3 3 1 2 5 13 14 18 20 21 29 21
14 5 1 3 9 8 2 3 4 2 4 5 5 4 3 1 2 3 6 5 6 9 7 3 5 6 3 2 7 3 3 4 8 3 4 3 5 8 11 12 20 14 18 34 6
12 5 7 0 2 6 3 4 4 4 3 5 4 3 4 4 5 5 4 4 5 12 3 2 3 2 5 2 5 3 7 3 3 5 3 4 5 5 7 1 6 14 15 13 8
10 4 5 2 2 1 1 5 6 5 1 4 4 2 5 2 5 6 6 4 4 3 8 4 4 7 2 2 3 4 1 7 6 4 5 4 5 7 12 6 1 14 10 7 6
9 3 2 3 4 2 1 4 9 6 7 6 4 1 1 2 3 3 4 4 1 6 4 3 5 2 4 1 2 3 4 5 5 3 3 4 5 4 8 12 14 21 17 11 11
4 5 5 3 4 6 8 5 8 9 8 5 8 6 6 6 5 6 6 9 14 3 3 3 4 3 9 7 6 5 4 6 6 4 3 5 5 3 8 13 16 16 20 18 13
4 3 4 1 3 3 4 6 4 11 8 10 5 6 6 9 7 5 8 6 9 6 7 6 4 5 5 7 3 2 4 3 5 4 6 5 3 4 7 8 18 19 11 9 14
6 3 4 4 6 7 2 3 6 7 5 10 7 6 3 6 6 7 4 7 6 13 7 5 2 1 4 6 3 2 3 4 5 5 5 8 9 8 7 9 13 5 2 7 10
6 6 7 6 10 7 7 7 8 6 7 5 7 2 5 3 3 3 3 2 2 6 5 4 0 2 5 7 7 6 6 7 6 5 9 8 3 5 12 4 8 5 2 5 8
13 6 4 7 8 3 4 3 5 4 3 5 4 4 3 3 5 11 14 12 7 1 2 3 3 3 5 6 4 6 7 2 3 4 13 10 8 11 5 12 14 10 6 7 8
Wind_Direction
338 338 337 336 336 337 332 329 330 338 345 328 288 244 199 212 209 207 205 178 161 158 163 160 157 192 133 44 49 65 61 53 48 142 163 150 136 170 92 139 143 124 160 155 154
335 334 332 332 330 328 325 317 316 319 327 312 286 255 211 215 230 214 184 174 171 168 173 173 160 164 129 95 38 59 62 249 310 34 144 147 155 142 128 156 113 130 151 157 162
331 328 327 326 325 321 317 312 304 302 300 285 257 259 225 215 231 182 168 170 170 159 162 152 147 50 38 56 108 127 143 324 339 261 152 146 135 136 142 207 181 153 161 163 166
327 325 323 321 318 316 309 303 293 288 283 267 254 233 222 188 169 172 176 172 158 169 171 178 170 39 68 17 344 16 254 243 304 21 135 157 145 141 180 215 171 161 162 165 174
325 322 320 318 312 308 301 296 286 278 270 261 239 223 200 216 192 172 172 167 168 173 186 189 203 180 34 206 124 315 335 355 338 294 162 172 173 152 220 153 161 161 169 174 180
325 323 320 315 307 302 294 286 278 267 261 250 221 206 193 226 170 155 182 179 187 189 199 208 225 246 310 191 148 50 359 357 324 302 227 171 153 139 164 160 161 164 177 184 191
329 326 322 315 304 297 286 274 270 267 253 228 205 197 211 199 179 189 196 204 198 198 204 224 231 252 1 59 70 52 23 19 357 355 98 114 91 148 158 165 165 175 181 193 204
336 331 326 315 303 294 279 261 258 264 246 212 198 190 222 196 180 181 196 207 214 214 221 237 235 254 268 130 89 80 54 350 320 320 339 64 228 152 164 165 179 186 188 193 207
337 332 329 320 307 286 257 238 244 227 200 183 182 187 206 185 189 177 196 212 213 224 231 227 255 240 158 123 79 200 151 118 288 216 260 130 139 179 172 177 183 192 200 200 206
333 330 330 331 321 242 180 166 177 183 170 168 193 212 194 205 192 195 187 202 203 222 252 243 211 156 13 97 231 184 117 139 242 231 210 161 151 152 181 189 191 198 208 209 213
339 334 335 343 14 143 143 131 126 202 229 221 199 201 91 194 198 207 193 202 220 217 220 253 132 205 223 200 215 190 145 168 227 232 265 264 161 170 163 180 193 212 214 217 223
347 342 344 6 79 129 135 131 62 13 297 260 251 257 253 238 190 214 204 191 202 190 232 11 251 236 230 211 217 212 157 193 179 162 124 51 265 230 173 172 184 204 225 220 227
353 351 2 42 102 127 112 47 347 328 257 276 232 243 235 209 209 210 198 203 217 163 230 181 246 343 185 189 217 204 192 185 158 147 128 124 256 4 318 193 194 199 218 228 238
3 6 52 86 105 128 96 17 355 347 61 277 216 218 187 187 215 195 197 194 240 217 207 238 279 230 297 177 165 284 187 164 146 137 190 68 182 27 300 303 80 131 215 220 234
6 14 116 105 103 88 359 358 347 329 66 150 176 152 161 165 151 210 200 197 186 221 110 247 266 341 324 241 183 243 143 142 136 78 66 336 72 308 357 299 264 272 245 232 224
354 8 29 177 156 333 324 292 312 42 9 66 144 164 119 343 167 161 183 197 231 165 315 255 268 246 227 277 168 113 77 45 52 83 34 284 103 297 243 247 285 273 263 237 231
354 354 324 210 183 201 294 327 36 130 2 187 152 106 152 209 304 163 176 173 173 87 327 321 279 278 189 87 60 93 106 40 18 62 217 234 71 234 246 246 247 257 236 227 241
348 329 260 212 221 222 308 50 300 198 228 53 102 84 138 140 260 25 85 172 263 73 53 64 329 250 94 181 185 262 132 152 215 145 241 25 129 249 229 250 238 235 242 240 236
355 344 154 190 213 228 322 63 234 225 279 105 52 71 339 279 122 145 159 207 219 166 180 152 279 303 243 233 121 182 74 163 106 6 72 309 284 292 234 240 214 242 210 228 239
-0 39 41 351 203 205 77 254 258 226 27 63 106 188 202 255 137 137 176 224 213 194 145 232 309 279 317 22 44 103 156 75 17 130 91 322 290 247 297 308 234 189 194 213 238
4 73 16 138 200 312 110 244 281 326 236 80 148 157 217 233 167 156 186 295 216 98 149 139 155 291 22 20 222 26 32 57 111 101 142 159 267 228 254 271 168 147 157 164 201
18 52 143 135 5 22 213 215 355 340 25 63 94 134 336 30 73 132 152 233 262 150 158 224 127 263 245 302 330 211 138 134 122 196 87 131 257 279 251 289 301 306 318 327 322
41 30 156 350 41 343 323 340 48 27 19 37 9 39 28 27 71 43 12 20 29 87 150 207 30 18 350 3 8 14 11 104 110 95 190 128 248 353 307 300 287 299 303 324 335
23 35 43 272 3 334 305 333 28 41 74 64 17 54 43 27 5 36 5 348 11 51 58 79 86 136 167 232 202 324 314 150 120 112 167 202 183 284 285 296 291 283 301 339 353
38 55 14 338 348 334 336 1 14 9 29 47 21 41 60 32 3 19 343 338 6 11 33 86 72 178 238 253 210 328 300 271 121 138 144 193 158 220 222 237 258 260 335 343 7
42 16 356 335 337 357 5 350 17 346 20 359 103 43 60 84 144 300 21 324 287 344 37 8 143 325 336 0 25 57 30 52 52 110 74 109 88 168 199 190 148 166 69 40 29
31 11 353 354 348 52 321 333 11 352 348 26 334 121 131 176 266 280 278 259 240 313 1 65 101 53 295 350 6 18 330 343 82 68 148 155 206 159 155 163 165 161 148 87 68